This demonstration page uses our WeatherBlox Daily Observations layout. Learn more.

Left ArrowRight Arrow

Hourly Observations for July 11, 2015

Temp ( °F °C ) Dew Point ( °F °C ) Humidity (%) Winds ( mph kmh ) Pressure ( in mb ) Visibility ( mi km ) Precip ( " mm )
12:51 am 00:51 Mostly Cloudy 71 21.7 63 17.2 76 76 E 10 17 29.88 1012 10 16.0934 0.01 0.254
1:51 am 01:51 Mostly Cloudy 75 23.9 62 16.7 64 64 E 14 22 29.97 1015 10 16.0934 N/A
2:51 am 02:51 Mostly Cloudy 70 21.1 63 17.2 79 79 SE 8 13 29.87 1012 10 16.0934 N/A
3:51 am 03:51 Clear 70 21.1 63 17.2 79 79 ESE 10 17 29.87 1012 10 16.0934 N/A
4:51 am 04:51 Mostly Clear 70 21.1 62 16.7 76 76 SE 9 15 29.9 1013 10 16.0934 N/A
5:51 am 05:51 Mostly Cloudy 70 21.1 62 16.7 76 76 SE 12 19 29.93 1014 10 16.0934 N/A
6:51 am 06:51 Mostly Cloudy 73 22.8 63 17.2 71 71 E 9 15 29.95 1014 10 16.0934 N/A
7:51 am 07:51 Mostly Cloudy 76 24.4 64 17.8 67 67 E 15 24 29.95 1014 10 16.0934 N/A
8:51 am 08:51 Mostly Cloudy 77 25 63 17.2 62 62 E 10 17 29.97 1015 10 16.0934 N/A
9:51 am 09:51 Sunny 82 27.8 64 17.8 55 55 E 10 17 29.96 1014 10 16.0934 N/A
10:51 am 10:51 Sunny 86 30 64 17.8 48 48 E 12 19 29.94 1014 10 16.0934 N/A
11:51 am 11:51 Sunny 88 31.1 63 17.2 43 43 ESE 8 13 29.93 1014 10 16.0934 N/A
12:51 pm 12:51 Sunny 92 33.3 62 16.7 37 37 E 9 15 29.9 1013 10 16.0934 N/A
1:51 pm 13:51 Sunny 94 34.4 60 15.6 32 32 undefined N/A 29.86 1011 10 16.0934 N/A
2:51 pm 14:51 Partly Cloudy 94 34.4 58 14.4 30 30 undefined N/A 29.83 1010 10 16.0934 N/A
3:51 pm 15:51 Mostly Sunny 97 36.1 59 15 28 28 SSE 10 17 29.81 1009 10 16.0934 N/A
4:51 pm 16:51 Partly Cloudy 95 35 58 14.4 29 29 E 12 19 29.81 1009 10 16.0934 N/A
5:27 pm 17:27 Mostly Cloudy with Nearby Thunderstorms 88 31.1 65 18.3 46 46 WNW 13 20 29.87 1012 10 16.0934 N/A
5:42 pm 17:42 Mostly Sunny 80 26.7 63 17.2 56 56 WNW 15 24 29.74 1007 10 16.0934 N/A
5:51 pm 17:51 Partly Cloudy with Thunderstorms 84 28.9 63 17.2 49 49 W 10 17 29.82 1010 10 16.0934 N/A
6:24 pm 18:24 Partly Cloudy with Nearby Thunderstorms 79 26 66 19 65 65 W 10 17 29.8 1009 10 16.0934 N/A
6:42 pm 18:42 Partly Cloudy with Thunderstorms 79 26.1 67 19.4 67 67 N 13 20 29.74 1007 10 16.0934 N/A
6:51 pm 18:51 Partly Cloudy with Nearby Thunderstorms 78 25.6 65 18.3 64 64 N 20 31 29.88 1012 10 16.0934 N/A
7:16 pm 19:16 Sunny 82 28 64 18 55 55 N 12 19 29.8 1009 10 16.0934 N/A
7:33 pm 19:33 Clear with Nearby Thunderstorms 78 25.6 66 18.9 67 67 W 18 30 29.85 1011 10 16.0934 N/A
7:39 pm 19:39 Clear with Thunderstorms 77 25 64 18 65 65 W 18 30 29.88 1012 10 16.0934 N/A
7:51 pm 19:51 Clear with Thunderstorms 78 25.6 63 17.2 60 60 WNW 13 20 29.91 1013 10 16.0934 N/A
8:00 pm 20:00 Clear with Nearby Thunderstorms 78 25.6 63 17.2 60 60 NW 12 19 29.85 1011 10 16.0934 N/A
8:29 pm 20:29 Clear 79 26.1 63 17.2 58 58 NNE 10 17 29.83 1010 10 16.0934 N/A
8:51 pm 20:51 Clear 80 26.7 63 17.2 56 56 E 9 15 29.89 1012 10 16.0934 N/A
9:51 pm 21:51 Clear 74 23.3 67 19.4 79 79 WNW 6 9 29.93 1014 10 16.0934 N/A
10:51 pm 22:51 Clear 76 24.4 60 15.6 58 58 NW 3 6 30.04 1017 10 16.0934 N/A
11:51 pm 23:51 Clear 74 23.3 68 20 82 82 ESE 6 9 29.91 1013 10 16.0934 N/A

Powered by AerisWeather